User: anonymous   Login
Location: Sungai Bunut
(2.6333°N, 113.7333°E)
Time: 09:38:51
(UTC+00:00)
Language:

Ariane H10 - Orbit

View from above orbital plane
View from above orbital plane
View from above satellite
View from above satellite

Ground track
Ground track

The orbit data is extracted from the following two-line orbital elements,

1 19689U 88109C   22017.66720115 -.00000005  00000-0  44195-3 0  9991
2 19689   6.6318 170.9731 7174582 202.2798  95.4636  2.28934267241093
Epoch (UTC): 17 January 2022 16:00:46
Eccentricity: 0.7174582
inclination: 6.6318°
perigee height: 493 km
apogee height: 35386 km
right ascension of ascending node: 170.9731°
argument of perigee: 202.2798°
revolutions per day: 2.28934267
mean anomaly at epoch: 95.4636°
orbit number at epoch: 24109

The dashed part of the orbit path shows where the satellite is in the earth's shadow,  

DLR